Hourly Data Report for November 17, 2021

MIRAMICHI RCS
NEW BRUNSWICK
Current Station Operator: ECCC - MSC

47°00'34.000" N
65°27'54.000" W
33.00 m
8100989
71744
ACQ

Download Data

Hourly Data (November 2021)
Hourly Data Report for November 17, 2021
TIME
LST
Temp Definition
°C
Dew Point Definition
°C
Rel Hum Definition
%
Precip. Amount Definition
mm

Wind Dir Definition
10's deg

Wind Spd Definition
km/h
Visibility Definition
km
Stn Press Definition
kPa
Hmdx Definition


Wind Chill Definition


Weather Definition


00:00 -0.2 -6.5 63 0.0 27 17   100.51   -5 LegendNANA
01:00 -0.3 -6.5 63 0.0 27 21   100.54   -6 LegendNANA
02:00 -0.7 -6.4 65 0.0 27 16   100.66   -5 LegendNANA
03:00 -0.5 -6.0 67 0.0 29 11   100.80   -4 LegendNANA
04:00 -0.2 -6.6 62 0.0 29 23   100.90   -6 LegendNANA
05:00 -0.4 -6.5 63 0.0 30 19   101.03   -6 LegendNANA
06:00 -0.7 -6.3 66 0.0 29 15   101.14   -5 LegendNANA
07:00 -1.1 -6.1 69 0.0 28 14   101.25   -6 LegendNANA
08:00 -1.2 -6.0 70 0.0 29 17   101.38   -6 LegendNANA
09:00 -0.5 -5.9 67 0.0 29 18   101.47   -6 LegendNANA
10:00 0.3 -6.1 62 0.0 29 21   101.59     LegendNANA
11:00 1.2 -6.2 57 0.0 30 16   101.66     LegendNANA
12:00 2.0 -6.1 55 0.0 29 16   101.68     LegendNANA
13:00 2.6 -6.1 53 0.0 31 12   101.70     LegendNANA
14:00 3.3 -5.5 52 0.0 32 10   101.74     LegendNANA
15:00 3.4 -5.7 51 0.0 30 13   101.78     LegendNANA
16:00 2.5 -5.7 54 0.0 31 6   101.88     LegendNANA
17:00 1.0 -5.4 62 0.0 33 4   101.96     LegendNANA
18:00 -0.1 -5.4 67 0.0 34 6   102.01   -2 LegendNANA
19:00 -1.0 -5.3 73 0.0 32 4   102.06   -2 LegendNANA
20:00 -1.7 -5.2 77 0.0 31 2   102.08   -2 LegendNANA
21:00 -2.5 -5.3 81 0.0 35 1   102.09   -3 LegendNANA
22:00 -3.6 -6.0 84 0.0   0   102.11     LegendNANA
23:00 -3.0 -5.0 87 0.0 35 1   102.13   -3 LegendNANA

Notes on Data Quality.

Legend

  • E = Estimated
  • M = Missing
  • NA = Not Available*
  • [empty] = Indicates an unobserved value
Date modified: